SB KEPS @ AMSAT $ORB14142.O Orbital Elements 14142.OSCAR
HR AMSAT ORBITAL ELEMENTS FOR OSCAR SATELLITES FROM WA5QGD FORT WORTH,TX May 22, 2014 BID: ORB14142.O TO ALL RADIO AMATEURS BT
Satellite: AO-07 Catalog number: 07530 Epoch time: 14142.83781331 Element set: 970 Inclination: 101.4691 deg RA of node: 125.5061 deg Eccentricity: 0.0011799 Arg of perigee: 347.0262 deg Mean anomaly: 076.0085 deg Mean motion: 12.53605190 rev/day Decay rate: -4.8e-07 rev/day^2 Epoch rev: 80834 Checksum: 282
Satellite: FO-29 Catalog number: 24278 Epoch time: 14142.78175022 Element set: 380 Inclination: 098.5125 deg RA of node: 160.1439 deg Eccentricity: 0.0350355 Arg of perigee: 003.7604 deg Mean anomaly: 044.0664 deg Mean motion: 13.53024116 rev/day Decay rate: -1.4e-07 rev/day^2 Epoch rev: 87723 Checksum: 278
Satellite: SO-33 Catalog number: 25509 Epoch time: 14141.82152259 Element set: 755 Inclination: 031.4346 deg RA of node: 309.7741 deg Eccentricity: 0.0349897 Arg of perigee: 243.3791 deg Mean anomaly: 266.4863 deg Mean motion: 14.29538432 rev/day Decay rate: 3.33e-06 rev/day^2 Epoch rev: 81337 Checksum: 327
Satellite: RS-22 Catalog number: 27939 Epoch time: 14142.55539623 Element set: 509 Inclination: 097.8096 deg RA of node: 317.9783 deg Eccentricity: 0.0013122 Arg of perigee: 184.4493 deg Mean anomaly: 175.6592 deg Mean motion: 14.65182246 rev/day Decay rate: 7.87e-06 rev/day^2 Epoch rev: 56897 Checksum: 358
Satellite: VO-52 Catalog number: 28650 Epoch time: 14142.08497348 Element set: 743 Inclination: 097.5593 deg RA of node: 148.3587 deg Eccentricity: 0.0023877 Arg of perigee: 241.3682 deg Mean anomaly: 118.5132 deg Mean motion: 14.85427867 rev/day Decay rate: 1.285e-05 rev/day^2 Epoch rev: 48935 Checksum: 351
Satellite: HO-68 Catalog number: 36122 Epoch time: 14142.72392975 Element set: 609 Inclination: 100.2494 deg RA of node: 195.3750 deg Eccentricity: 0.0007078 Arg of perigee: 295.7528 deg Mean anomaly: 064.2862 deg Mean motion: 13.16315586 rev/day Decay rate: -4.3e-07 rev/day^2 Epoch rev: 21308 Checksum: 309
Satellite: AO-73 Catalog number: 39444 Epoch time: 14141.75787103 Element set: 148 Inclination: 097.7726 deg RA of node: 213.3078 deg Eccentricity: 0.0061084 Arg of perigee: 330.3430 deg Mean anomaly: 029.4319 deg Mean motion: 14.78245766 rev/day Decay rate: 2.069e-05 rev/day^2 Epoch rev: 2556 Checksum: 315
/EX SB KEPS @ AMSAT $ORB14142.D Orbital Elements 14142.MICROS
HR AMSAT ORBITAL ELEMENTS FOR THE MICROSATS FROM WA5QGD FORT WORTH,TX May 22, 2014 BID: ORB14142.D TO ALL RADIO AMATEURS BT
Satellite: UO-11 Catalog number: 14781 Epoch time: 14142.16552245 Element set: 497 Inclination: 097.8547 deg RA of node: 202.7968 deg Eccentricity: 0.0007373 Arg of perigee: 261.4732 deg Mean anomaly: 098.5646 deg Mean motion: 14.81576511 rev/day Decay rate: 5.90e-06 rev/day^2 Epoch rev: 62411 Checksum: 319
Satellite: AO-16 Catalog number: 20439 Epoch time: 14142.41124749 Element set: 28 Inclination: 098.5061 deg RA of node: 080.2337 deg Eccentricity: 0.0010062 Arg of perigee: 230.7220 deg Mean anomaly: 276.7476 deg Mean motion: 14.32352474 rev/day Decay rate: 9.3e-07 rev/day^2 Epoch rev: 27079 Checksum: 278
Satellite: LO-19 Catalog number: 20442 Epoch time: 14142.37218124 Element set: 965 Inclination: 098.4768 deg RA of node: 080.9285 deg Eccentricity: 0.0011191 Arg of perigee: 219.7981 deg Mean anomaly: 140.2383 deg Mean motion: 14.32555021 rev/day Decay rate: 8.4e-07 rev/day^2 Epoch rev: 27098 Checksum: 304
Satellite: AO-27 Catalog number: 22825 Epoch time: 14141.80731519 Element set: 671 Inclination: 098.6602 deg RA of node: 088.0310 deg Eccentricity: 0.0008601 Arg of perigee: 023.5709 deg Mean anomaly: 037.3607 deg Mean motion: 14.29716216 rev/day Decay rate: 6.2e-07 rev/day^2 Epoch rev: 7701 Checksum: 278
Satellite: IO-26 Catalog number: 22826 Epoch time: 14142.07623391 Element set: 428 Inclination: 098.6545 deg RA of node: 088.5222 deg Eccentricity: 0.0008952 Arg of perigee: 015.2823 deg Mean anomaly: 344.8628 deg Mean motion: 14.30016121 rev/day Decay rate: 8.3e-07 rev/day^2 Epoch rev: 7718 Checksum: 293
Satellite: GO-32 Catalog number: 25397 Epoch time: 14141.80113722 Element set: 351 Inclination: 098.4660 deg RA of node: 100.7768 deg Eccentricity: 0.0002011 Arg of perigee: 065.0499 deg Mean anomaly: 353.6025 deg Mean motion: 14.23442236 rev/day Decay rate: 3.6e-07 rev/day^2 Epoch rev: 82411 Checksum: 265
Satellite: NO-44 Catalog number: 26931 Epoch time: 14142.37878325 Element set: 607 Inclination: 067.0519 deg RA of node: 105.0069 deg Eccentricity: 0.0006164 Arg of perigee: 282.8227 deg Mean anomaly: 077.2185 deg Mean motion: 14.30112715 rev/day Decay rate: 5.4e-07 rev/day^2 Epoch rev: 65991 Checksum: 299
Satellite: SO-50 Catalog number: 27607 Epoch time: 14141.95980570 Element set: 398 Inclination: 064.5570 deg RA of node: 312.2930 deg Eccentricity: 0.0044381 Arg of perigee: 019.1237 deg Mean anomaly: 341.1518 deg Mean motion: 14.73748758 rev/day Decay rate: 4.95e-06 rev/day^2 Epoch rev: 61361 Checksum: 313
Satellite: CO-55 Catalog number: 27844 Epoch time: 14142.30076544 Element set: 929 Inclination: 098.6975 deg RA of node: 151.4463 deg Eccentricity: 0.0009278 Arg of perigee: 357.8948 deg Mean anomaly: 069.8204 deg Mean motion: 14.21498034 rev/day Decay rate: 2.44e-06 rev/day^2 Epoch rev: 56490 Checksum: 343
Satellite: CO-57 Catalog number: 27848 Epoch time: 14142.59193243 Element set: 870 Inclination: 098.7068 deg RA of node: 151.4302 deg Eccentricity: 0.0009280 Arg of perigee: 003.7271 deg Mean anomaly: 117.2354 deg Mean motion: 14.21186275 rev/day Decay rate: 2.02e-06 rev/day^2 Epoch rev: 56486 Checksum: 300
Satellite: AO-51 Catalog number: 28375 Epoch time: 14142.10520863 Element set: 845 Inclination: 098.2485 deg RA of node: 089.9051 deg Eccentricity: 0.0084285 Arg of perigee: 071.7140 deg Mean anomaly: 289.3198 deg Mean motion: 14.41378178 rev/day Decay rate: 1.76e-06 rev/day^2 Epoch rev: 52015 Checksum: 321
Satellite: CP3 Catalog number: 31129 Epoch time: 14142.51685792 Element set: 752 Inclination: 097.9313 deg RA of node: 121.8040 deg Eccentricity: 0.0100087 Arg of perigee: 091.1176 deg Mean anomaly: 025.0481 deg Mean motion: 14.54645818 rev/day Decay rate: 1.019e-05 rev/day^2 Epoch rev: 37630 Checksum: 281
Satellite: CO-65 Catalog number: 32785 Epoch time: 14142.16017245 Element set: 955 Inclination: 097.7019 deg RA of node: 194.3093 deg Eccentricity: 0.0012320 Arg of perigee: 272.8384 deg Mean anomaly: 150.9459 deg Mean motion: 14.85244098 rev/day Decay rate: 1.158e-05 rev/day^2 Epoch rev: 32816 Checksum: 319
Satellite: PRISM Catalog number: 33493 Epoch time: 14142.75107204 Element set: 939 Inclination: 098.2480 deg RA of node: 317.3267 deg Eccentricity: 0.0018122 Arg of perigee: 162.8080 deg Mean anomaly: 197.3721 deg Mean motion: 14.89308317 rev/day Decay rate: 4.391e-05 rev/day^2 Epoch rev: 28839 Checksum: 309
Satellite: SOHLA-1 Catalog number: 33496 Epoch time: 14142.82282022 Element set: 356 Inclination: 098.1670 deg RA of node: 263.6965 deg Eccentricity: 0.0005313 Arg of perigee: 332.2038 deg Mean anomaly: 145.8201 deg Mean motion: 14.70794469 rev/day Decay rate: 2.94e-06 rev/day^2 Epoch rev: 28578 Checksum: 306
Satellite: TISAT-1 Catalog number: 36799 Epoch time: 14142.75895929 Element set: 200 Inclination: 098.0161 deg RA of node: 234.5645 deg Eccentricity: 0.0014973 Arg of perigee: 049.4871 deg Mean anomaly: 310.7609 deg Mean motion: 14.85579262 rev/day Decay rate: 3.055e-05 rev/day^2 Epoch rev: 20894 Checksum: 334
Satellite: STUDSAT Catalog number: 36801 Epoch time: 14141.05191122 Element set: 826 Inclination: 098.0343 deg RA of node: 240.3629 deg Eccentricity: 0.0008922 Arg of perigee: 031.7922 deg Mean anomaly: 021.1992 deg Mean motion: 14.96294395 rev/day Decay rate: 8.255e-05 rev/day^2 Epoch rev: 20907 Checksum: 286
Satellite: ALMASAT-1 Catalog number: 38078 Epoch time: 14142.75238819 Element set: 32 Inclination: 069.4675 deg RA of node: 120.5636 deg Eccentricity: 0.0598721 Arg of perigee: 065.6063 deg Mean anomaly: 355.1768 deg Mean motion: 14.48154805 rev/day Decay rate: 3.4677e-04 rev/day^2 Epoch rev: 11795 Checksum: 338
Satellite: XATCOBEO Catalog number: 38082 Epoch time: 14142.79078565 Element set: 244 Inclination: 069.4429 deg RA of node: 027.5167 deg Eccentricity: 0.0234833 Arg of perigee: 014.4229 deg Mean anomaly: 097.5637 deg Mean motion: 15.45864164 rev/day Decay rate: 2.72181e-03 rev/day^2 Epoch rev: 12045 Checksum: 317
Satellite: CUBEBUG-1 Catalog number: 39153 Epoch time: 14142.76169070 Element set: 141 Inclination: 098.0411 deg RA of node: 223.1119 deg Eccentricity: 0.0019212 Arg of perigee: 074.4472 deg Mean anomaly: 285.8853 deg Mean motion: 14.77670820 rev/day Decay rate: 1.809e-05 rev/day^2 Epoch rev: 5780 Checksum: 289
Satellite: ESTCUBE-1 Catalog number: 39161 Epoch time: 14142.76476385 Element set: 122 Inclination: 098.0970 deg RA of node: 223.8475 deg Eccentricity: 0.0011484 Arg of perigee: 113.4475 deg Mean anomaly: 246.7908 deg Mean motion: 14.69960135 rev/day Decay rate: 1.403e-05 rev/day^2 Epoch rev: 5586 Checksum: 312
/EX SB KEPS @ AMSAT $ORB14142.W Orbital Elements 14142.WEATHER
HR AMSAT ORBITAL ELEMENTS FOR WEATHER SATELLITES FROM WA5QGD FORT WORTH,TX May 22, 2014 BID: ORB14142.W TO ALL RADIO AMATEURS BT
Satellite: MET-2/21 Catalog number: 22782 Epoch time: 14142.77594735 Element set: 61 Inclination: 082.5488 deg RA of node: 193.4664 deg Eccentricity: 0.0021245 Arg of perigee: 339.3326 deg Mean anomaly: 158.2659 deg Mean motion: 13.83736208 rev/day Decay rate: 2.3e-07 rev/day^2 Epoch rev: 4660 Checksum: 312
Satellite: OKEAN-4 Catalog number: 23317 Epoch time: 14142.82153837 Element set: 539 Inclination: 082.5393 deg RA of node: 091.7121 deg Eccentricity: 0.0021013 Arg of perigee: 178.5019 deg Mean anomaly: 242.5383 deg Mean motion: 14.85493612 rev/day Decay rate: 7.92e-06 rev/day^2 Epoch rev: 5934 Checksum: 294
